Flag for Germany Weather past 2 weeks in Hanau, Hesse, Germany

Now
48 °F

Partly cloudy.


Feels Like: 46 °F
Forecast: 39 / 57 °F
Wind: 5 mph from South

Location: Frankfurt-M-Flughafen Airport

Current Time: Oct 23, 2014 at 7:59:36 PM

Latest Report: Oct 23, 2014 at 7:20 PM


Visibility: N/A

Pressure: 30.24 "Hg

Humidity: 94%

Dew point: 46 °F

Location of HanauLocation

Historic Weather in Hanau — Graph

°F

Hanau temperature yesterday

Maximum temperature yesterday: 50 °F (at 2:20 PM)
Minimum temperature yesterday: 45 °F (at 5:20 AM)
Average temperature yesterday: 48 °F

Past Weeks' High & Low Weather Summary

 TemperatureHumidityPressure
High72 °F (Oct 19, 3:50 PM)100% (Oct 8, 7:20 PM)30.27 "Hg (Oct 8, 7:20 PM)
Low45 °F (Oct 21, 4:20 AM)60% (Oct 20, 1:50 PM)29.56 "Hg (Oct 21, 5:50 PM)
Average57 °F90%29.93 "Hg
* Reported Oct 8 6:20 PM — Oct 23 6:50 PM, Hanau, Weather by CustomWeather, © 2014

Note: Actual official high and low records may vary slightly from our data, if they occured in-between our weather recording intervals... More about our weather records

Advertising

Hanau weather history for previous 24 hours

 ConditionsComfort  
Time TempWeatherWind HumidityBarometerVisibility
6:50 PM
Oct 23
50 °FBroken clouds.6 mph88%30.24 "HgN/A
6:20 PM52 °FBroken clouds.6 mph82%30.21 "HgN/A
5:50 PM52 °FBroken clouds.7 mph82%30.21 "HgN/A
5:20 PM54 °FBroken clouds.6 mph77%30.24 "HgN/A
4:50 PM55 °FScattered clouds.5 mph72%30.24 "HgN/A
4:20 PM55 °FPartly sunny.5 mph72%30.24 "HgN/A
3:50 PM54 °FPartly sunny.7 mph77%30.24 "HgN/A
3:20 PM54 °FBroken clouds.6 mph77%30.24 "HgN/A
2:50 PM54 °FBroken clouds.6 mph77%30.24 "HgN/A
2:20 PM54 °FPartly sunny.7 mph77%30.24 "HgN/A
1:50 PM52 °FBroken clouds.6 mph82%30.24 "HgN/A
1:20 PM52 °FPartly sunny.3 mph77%30.27 "HgN/A
12:50 PM52 °FPartly sunny.5 mph77%30.27 "HgN/A
12:20 PM50 °FPartly sunny.7 mph82%30.27 "HgN/A
11:50 AM50 °FPartly sunny.6 mph82%30.27 "HgN/A
11:20 AM50 °FPartly sunny.9 mph82%30.27 "HgN/A
10:50 AM50 °FPartly sunny.9 mph82%30.24 "HgN/A
10:20 AM50 °FPartly sunny.8 mph82%30.24 "HgN/A
9:50 AM50 °FPartly sunny.8 mph82%30.24 "HgN/A
9:20 AM50 °FPartly sunny.7 mph82%30.24 "HgN/A
8:50 AM48 °FPassing clouds.8 mph87%30.24 "HgN/A
8:20 AM48 °FPassing clouds.5 mph87%30.21 "HgN/A
7:50 AM48 °FPassing clouds.6 mph87%30.21 "HgN/A
7:20 AM48 °FPassing clouds.7 mph87%30.21 "HgN/A
6:50 AM48 °FPassing clouds.8 mph82%30.21 "HgN/A
6:20 AM48 °FPassing clouds.8 mph82%30.21 "HgN/A
5:50 AM48 °FPassing clouds.9 mph82%30.18 "HgN/A
5:20 AM48 °FPassing clouds.8 mph82%30.18 "HgN/A
4:50 AM48 °FPassing clouds.10 mph82%30.18 "HgN/A
4:20 AM48 °FPassing clouds.15 mph82%30.18 "HgN/A
3:50 AM48 °FPassing clouds.9 mph82%30.18 "HgN/A
3:20 AM48 °FClear.10 mph82%30.18 "Hg10 mi
2:50 AM48 °FClear.9 mph82%30.18 "Hg10 mi
2:20 AM48 °FClear.9 mph82%30.15 "Hg10 mi
1:50 AM48 °FClear.10 mph82%30.15 "Hg10 mi
1:20 AM48 °FPassing clouds.10 mph76%30.15 "HgN/A
12:50 AM48 °FPassing clouds.6 mph82%30.15 "HgN/A
12:20 AM48 °FPassing clouds.8 mph76%30.15 "HgN/A
11:50 PM
Oct 22
50 °FPassing clouds.8 mph67%30.12 "HgN/A
11:20 PM50 °FPassing clouds.8 mph71%30.12 "HgN/A
10:50 PM50 °FPassing clouds.14 mph71%30.12 "HgN/A
10:20 PM50 °FPassing clouds.13 mph76%30.12 "HgN/A
9:50 PM50 °FPassing clouds.10 mph71%30.12 "HgN/A
9:20 PM50 °FPassing clouds.13 mph71%30.09 "HgN/A
8:50 PM50 °FPassing clouds.15 mph71%30.09 "HgN/A
8:20 PM50 °FPassing clouds.13 mph71%30.09 "HgN/A
7:50 PM50 °FPassing clouds.14 mph71%30.07 "HgN/A
7:20 PM50 °FPartly sunny.13 mph71%30.07 "HgN/A
Weather by CustomWeather, © 2014

See weather overviewHow to use our weather pages